TimeCST,TemperatureF,Dew PointF,Humidity,Sea Level PressureIn,VisibilityMPH,Wind Direction,Wind SpeedMPH,Gust SpeedMPH,PrecipitationIn,Events,Conditions,WindDirDegrees,DateUTC
12:53 AM,30.9,21.0,67,29.99,10.0,North,19.6,28.8,N/A,,Overcast,350,2011-12-19 06:53:00
1:08 AM,30.2,21.2,69,29.96,10.0,North,23.0,28.8,N/A,,Overcast,350,2011-12-19 07:08:00
1:53 AM,30.0,21.0,69,30.01,10.0,North,15.0,-,N/A,,Overcast,350,2011-12-19 07:53:00
2:53 AM,30.0,19.9,66,30.06,10.0,NNW,13.8,-,N/A,,Overcast,340,2011-12-19 08:53:00
3:53 AM,30.0,21.0,69,30.09,10.0,NNW,10.4,-,N/A,,Overcast,330,2011-12-19 09:53:00
4:53 AM,26.1,19.0,75,30.12,10.0,NW,8.1,-,N/A,,Partly Cloudy,320,2011-12-19 10:53:00
5:53 AM,28.0,19.9,72,30.14,10.0,WNW,6.9,-,N/A,,Overcast,300,2011-12-19 11:53:00
6:53 AM,28.9,19.0,67,30.19,10.0,NNW,13.8,-,N/A,,Overcast,330,2011-12-19 12:53:00
7:53 AM,23.0,16.0,74,30.22,10.0,NNW,9.2,-,N/A,,Partly Cloudy,340,2011-12-19 13:53:00
8:13 AM,24.8,17.6,74,30.19,10.0,NNW,10.4,-,N/A,,Mostly Cloudy,330,2011-12-19 14:13:00
8:53 AM,26.1,17.1,69,30.25,10.0,NNW,10.4,-,N/A,,Overcast,330,2011-12-19 14:53:00
9:53 AM,27.0,18.0,69,30.28,10.0,NNW,11.5,-,N/A,,Overcast,340,2011-12-19 15:53:00
10:32 AM,28.4,17.6,64,30.26,10.0,North,12.7,-,N/A,,Scattered Clouds,350,2011-12-19 16:32:00
10:53 AM,28.0,18.0,66,30.31,10.0,North,9.2,-,N/A,,Scattered Clouds,350,2011-12-19 16:53:00
11:53 AM,28.9,18.0,64,30.31,-9999.0,NNW,6.9,-,N/A,,Overcast,330,2011-12-19 17:53:00
12:40 PM,30.2,17.6,60,30.27,-9999.0,North,-9999.0,-,N/A,,Overcast,0,2011-12-19 18:40:00
12:53 PM,30.0,18.0,61,30.31,-9999.0,NW,4.6,-,N/A,,Overcast,310,2011-12-19 18:53:00
1:18 PM,30.2,17.6,60,30.27,10.0,WNW,4.6,-,N/A,,Overcast,300,2011-12-19 19:18:00
1:32 PM,30.2,19.4,64,30.26,10.0,NW,5.8,-,N/A,,Overcast,310,2011-12-19 19:32:00
1:53 PM,30.9,19.0,61,30.30,10.0,WNW,4.6,-,N/A,,Overcast,300,2011-12-19 19:53:00
2:43 PM,30.2,17.6,60,30.26,10.0,NW,4.6,-,N/A,,Scattered Clouds,310,2011-12-19 20:43:00
2:53 PM,32.0,18.0,56,30.30,10.0,West,6.9,-,N/A,,Mostly Cloudy,280,2011-12-19 20:53:00
3:19 PM,30.2,17.6,60,30.26,10.0,WNW,5.8,-,N/A,,Overcast,300,2011-12-19 21:19:00
3:40 PM,30.2,17.6,60,30.26,10.0,NW,8.1,-,N/A,,Mostly Cloudy,320,2011-12-19 21:40:00
3:53 PM,30.9,17.1,57,30.30,10.0,Calm,Calm,-,N/A,,Mostly Cloudy,0,2011-12-19 21:53:00
4:53 PM,27.0,16.0,63,30.30,10.0,NNE,3.5,-,N/A,,Mostly Cloudy,30,2011-12-19 22:53:00
5:53 PM,27.0,17.1,66,30.30,10.0,SE,3.5,-,N/A,,Mostly Cloudy,130,2011-12-19 23:53:00
6:53 PM,21.9,15.1,75,30.31,10.0,SE,4.6,-,N/A,,Clear,130,2011-12-20 00:53:00
7:53 PM,21.9,15.1,75,30.29,10.0,SSE,5.8,-,N/A,,Clear,150,2011-12-20 01:53:00
8:53 PM,19.0,12.9,77,30.28,10.0,South,8.1,-,N/A,,Clear,180,2011-12-20 02:53:00
9:53 PM,17.1,10.9,77,30.28,10.0,South,6.9,-,N/A,,Clear,180,2011-12-20 03:53:00
10:53 PM,16.0,10.0,77,30.27,10.0,South,6.9,-,N/A,,Clear,180,2011-12-20 04:53:00
11:53 PM,17.1,10.0,74,30.25,10.0,South,9.2,-,N/A,,Clear,180,2011-12-20 05:53:00